Location: Aragnouet
(42.7874°N, 0.2165°E)
Time: 19:20:59
(UTC+00:00)

GEOS 3 Rocket - Pass Details

Date: 09 April 2020
Orbit: 774 x 845 km, 115.0° (Epoch: 01 June)

Event Time Altitude Azimuth Distance (km) Brightness Sun altitude
Exits shadow 19:27:21 - 144° (SE) 2,570 5.7 -10.1°
Reaches altitude 10° 19:27:54 10° 145° (SE) 2,348 5.5 -10.1°
Maximum altitude 19:33:00 84° 232° (SW) 811 3.7 -11.0°
Drops below altitude 10° 19:38:14 10° 322° (NW) 2,407 7.1 -11.9°
Sets 19:40:34 0° 324° (NW) 3,353 7.9 -12.3°
